Probability
0 0 0 0 0 0 0 0 0 0 0 0 0 0 0 0 0 0 0 0 0 0 0 0 0 0 0 0 0 0 0 0 0 0 0 0 0 0 0 0 0 0 0
0 0 0 0 0 0 0 0 0 0 0 0 0 0 0 0 0 0 0 0 0 0 0 0 0 0 0 0 0 0 0 0 0 0 0 0 0 0 0 0 0 0 0
0 0 0 0 0 0 0 0 0 0 0 0 0 0 0 0 0 0 0 0 0 0 0 0 0 0 0 0 0 0 0 0 0 0 0 0 0 0 0 0 0 0 0
0 0 0 0 0 0 0 0 0 0 0 0 0 0 0 0 0 0 0 0 0 0 0 0 0 0 0 0 0 0 0 0 0 0 0 0 0 0 0 0 0 0 0
0 0 0 0 0 0 0 0 0 0 0 0 0 0 0 0 0 0 0 0 0 0 0 0 0 0 0 0 0 0 0 0 0 0 0 0 0 0 0 0 0 0 0
0 0 0 0 0 0 0 0 0 0 0 0 0 0 0 0 0 0 0 0 0 0 0 0 0 0 0 0 0 0 0 0 0 0 0 0 0 0 0 0 0 0 0
0 0 0 0 0 0 0 0 0 0 0 0 0 0 0 0 0 0 0 0 0 0 0 0 0 0 0 0 0 0 0 0 0 0 0 0 0 0 0 0 0 0 0
0 0 0 0 0 0 0 0 0 0 0 0 0 0 0 0 0 0 0 0 0 0 0 0 0 0 0 0 0 0 0 0 0 0 0 0 0 0 0 0 0 0 0
0 0 0 0 0 0 0 0 0 0 0 0 0 0 0 0 0 0 0 0 0 0 0 0 0 0 0 0 0 0 0 0 0 0 0 0 0 0 0 0 0 0 0
0 0 0 0 0 0 0 0 0 0 0 0 0 0 0 0 0 0 0 0 0 0 0 0 0 0 0 0 0 0 0 0 0 0 0 0 0 0 0 0 0 0 0
0 0 0 0 0 0 0 0 0 0 0 0 0 0 0 0 0 0 0 0 0 0 0 0 0 0 0 0 0 0 0 0 0 0 0 0 0 0 0 0 0 0 0
0 0 0 0 0 0 0 0 0 0 0 0 0 0 0 0 0 0 0 0 0 0 0 0 0 0 0 0 0 0 0 0 0 0 0 0 0 0 0 0 0 0 0
0 0 0 0 0 0 0 0 0 0 0 0 0 0 0 0 0 0 0 0 0 0 0 0 0 0 0 0 0 0 0 0 0 0 0 0 0 0 0 0 0 0 0
0 0 0 0 0 0 0 0 0 0 0 0 0 0 0 0 0 0 0 0 0 0 0 0 0 0 0 0 0 0 0 0 0 0 0 0 0 0 0 0 0 0 0
0 0 0 0 0 0 0 0 0 0 0 0 0 0 0 0 0 0 0 0 0 0 0 0 0 0 0 0 0 0 0 0 0 0 0 0 0 0 0 0 0 0 0
0 0 0 0 0 0 0 0 0 0 0 0 0 0 0 0 0 0 0 0 0 0 0 0 0 0 0 0 0 0 0 0 0 0 0 0 0 0 0 0 0 0 0
0 0 0 0 0 0 0 0 0 0 0 0 0 0 0 0 0 0 0 0 0 0 0 0 0 0 0 0 0 0 0 0 0 0 0 0 0 0 0 0 0 0 0
0 0 0 0 0 0 0 0 0 0 0 0 0 0 0 0 0 0 0 0 0 0 0 0 0 0 0 0 0 0 0 0 0 0 0 0 0 0 0 0 0 0 0
0 0 0 0 0 0 0 0 0 0 0 0 0 0 0 0 0 0 0 0 0 0 0 0 0 0 0 0 0 0 0 0 0 0 0 0 0 0 0 0 0 0 0
0 0 0 0 0 0 0 0 0 0 0 0 0 0 0 0 0 0 0 0 0 0 0 0 0 0 0 0 0 0 0 0 0 0 0 0 0 0 0 0 0 0 0
0 0 0 0 0 0 0 0 0 0 0 0 0 0 0 0 0 0 0 0 0 0 0 0 0 0 0 0 0 0 0 0 0 0 0 0 0 0 0 0 0 0 0
0 0 0 0 0 0 0 0 0 0 0 0 0 0 0 0 0 0 0 0 0 0 0 0 0 0 0 0 0 0 0 0 0 0 0 0 0 0 0 0 0 0 0
0 0 0 0 0 0 0 0 0 0 0 0 0 0 0 0 0 0 0 0 0 0 0 0 0 0 0 0 0 0 0 0 0 0 0 0 0 0 0 0 0 0 0
0 0 0 0 0 0 0 0 0 0 0 0 0 0 0 0 0 0 0 0 0 0 0 0 0 0 0 0 0 0 0 0 0 0 0 0 0 0 0 0 0 0 0
0 0 0 0 0 0 0 0 0 0 0 0 0 0 0 0 0 0 0 0 0 0 0 0 0 0 0 0 0 0 0 0 0 0 0 0 0 0 0 0 0 0 0
0 0 0 0 0 0 0 0 0 0 0 0 0 0 0 0 0 0 0 0 0 0 0 0 0 0 0 0 0 0 0 0 0 0 0 0 0 0 0 0 0 0 0
Height
5630 5632 5635 5637 5640 5642 5645 5647 5649 5652 5654 5656 5657 5659 5661 5662 5663 5664 5665 5666 5667 5668 5668 5669 5670 5671 5672 5673 5673 5674 5675 5675 5676 5678 5678 5678 5678 5678 5678 5677 5677 5677 5677
5620 5623 5625 5627 5629 5632 5634 5637 5639 5642 5644 5646 5647 5649 5650 5652 5653 5654 5655 5656 5657 5657 5658 5659 5659 5660 5660 5661 5662 5662 5663 5663 5663 5664 5665 5665 5665 5665 5664 5664 5663 5663 5663
5610 5612 5615 5617 5619 5622 5624 5626 5629 5631 5633 5635 5637 5638 5640 5641 5642 5644 5645 5645 5646 5647 5647 5648 5648 5648 5649 5649 5650 5650 5650 5650 5650 5650 5651 5652 5651 5651 5651 5650 5650 5649 5649
5600 5602 5604 5607 5609 5611 5613 5615 5618 5620 5622 5625 5626 5628 5629 5631 5632 5633 5634 5635 5635 5636 5636 5637 5637 5637 5637 5637 5637 5637 5637 5637 5637 5637 5638 5638 5638 5638 5637 5637 5637 5636 5636
5590 5592 5594 5596 5599 5601 5603 5605 5607 5609 5611 5613 5615 5617 5619 5620 5621 5622 5623 5624 5624 5625 5625 5626 5626 5626 5625 5625 5625 5625 5625 5625 5624 5624 5625 5625 5625 5625 5624 5624 5623 5622 5622
5580 5582 5584 5586 5588 5590 5592 5594 5597 5598 5600 5602 5604 5606 5607 5609 5610 5611 5612 5613 5613 5614 5614 5614 5614 5613 5613 5613 5612 5612 5612 5612 5612 5612 5612 5612 5612 5612 5611 5611 5610 5610 5610
5570 5572 5574 5576 5578 5580 5582 5584 5586 5588 5589 5591 5593 5594 5596 5597 5598 5599 5600 5601 5602 5602 5602 5602 5602 5602 5601 5600 5600 5599 5599 5599 5599 5599 5599 5599 5599 5599 5599 5598 5597 5596 5596
5560 5562 5564 5566 5568 5569 5571 5573 5575 5577 5578 5580 5581 5583 5584 5585 5586 5587 5588 5589 5589 5590 5590 5590 5590 5589 5589 5588 5588 5587 5587 5587 5587 5587 5587 5587 5586 5586 5585 5585 5583 5583 5583
5550 5551 5553 5555 5557 5559 5561 5562 5564 5566 5567 5569 5570 5571 5573 5574 5574 5575 5576 5576 5577 5577 5577 5577 5577 5577 5577 5576 5576 5576 5576 5575 5575 5574 5574 5574 5573 5573 5572 5572 5571 5570 5570
5540 5541 5543 5545 5547 5548 5550 5552 5553 5555 5556 5558 5559 5560 5561 5562 5562 5563 5563 5564 5565 5565 5565 5565 5565 5565 5564 5563 5564 5564 5564 5564 5563 5563 5562 5562 5561 5560 5559 5559 5558 5558 5557
5530 5531 5533 5535 5536 5538 5540 5541 5543 5544 5546 5547 5548 5549 5550 5550 5551 5551 5552 5552 5552 5553 5553 5553 5553 5553 5552 5552 5552 5552 5552 5552 5551 5551 5550 5549 5549 5548 5547 5546 5546 5545 5545
5520 5522 5523 5525 5526 5528 5529 5531 5532 5533 5534 5535 5536 5537 5538 5538 5539 5539 5540 5540 5540 5540 5541 5541 5541 5541 5540 5540 5540 5540 5540 5539 5539 5538 5538 5537 5537 5536 5535 5534 5533 5533 5532
5511 5512 5513 5515 5516 5518 5519 5520 5521 5522 5523 5524 5525 5526 5526 5527 5527 5528 5528 5528 5527 5528 5528 5529 5529 5529 5528 5528 5528 5528 5527 5527 5527 5526 5526 5526 5525 5524 5523 5522 5521 5520 5519
5502 5503 5504 5505 5506 5508 5509 5510 5511 5512 5512 5513 5513 5514 5514 5515 5515 5515 5515 5516 5516 5516 5516 5517 5517 5517 5517 5517 5516 5516 5515 5515 5515 5515 5514 5514 5513 5512 5511 5510 5509 5508 5507
5493 5494 5495 5496 5497 5498 5499 5500 5500 5501 5501 5502 5502 5502 5503 5504 5504 5504 5503 5504 5504 5505 5504 5505 5505 5505 5505 5505 5505 5504 5504 5503 5503 5503 5502 5501 5501 5500 5499 5498 5497 5495 5494
5484 5485 5486 5486 5487 5488 5488 5489 5489 5490 5491 5491 5491 5491 5492 5492 5492 5492 5493 5493 5493 5493 5493 5494 5494 5494 5493 5493 5493 5492 5492 5492 5491 5491 5490 5489 5489 5488 5487 5486 5484 5483 5482
5475 5476 5476 5477 5477 5478 5478 5479 5480 5480 5480 5480 5480 5481 5481 5481 5482 5482 5482 5482 5482 5482 5482 5483 5483 5483 5482 5481 5481 5480 5480 5479 5479 5478 5478 5477 5476 5475 5474 5473 5472 5470 5468
5466 5466 5467 5467 5468 5468 5469 5469 5470 5470 5470 5470 5470 5471 5471 5471 5471 5471 5471 5471 5471 5471 5471 5471 5471 5471 5471 5470 5469 5468 5468 5467 5466 5465 5465 5464 5463 5463 5462 5460 5459 5457 5455
5456 5457 5457 5458 5458 5459 5459 5460 5460 5460 5460 5460 5460 5460 5460 5461 5461 5460 5460 5460 5460 5460 5460 5460 5460 5460 5459 5458 5457 5456 5455 5454 5454 5453 5452 5451 5450 5450 5448 5447 5446 5444 5442
5447 5447 5448 5449 5449 5450 5450 5450 5450 5450 5450 5450 5450 5450 5450 5450 5450 5450 5450 5449 5449 5449 5449 5449 5448 5448 5447 5446 5445 5444 5443 5442 5441 5440 5439 5438 5437 5436 5435 5434 5432 5431 5429
5437 5438 5439 5439 5440 5440 5440 5441 5440 5440 5440 5440 5440 5439 5439 5439 5439 5439 5439 5439 5438 5438 5438 5437 5437 5436 5435 5434 5433 5432 5431 5430 5429 5428 5427 5426 5425 5423 5422 5421 5419 5418 5416
5428 5429 5429 5430 5430 5430 5431 5431 5431 5431 5431 5430 5430 5429 5429 5429 5428 5428 5428 5428 5427 5427 5427 5426 5425 5424 5423 5422 5421 5420 5419 5418 5417 5416 5414 5413 5412 5411 5410 5408 5407 5406 5404
5419 5419 5420 5420 5420 5421 5421 5421 5421 5421 5421 5421 5420 5420 5419 5419 5418 5417 5417 5417 5417 5416 5416 5415 5414 5413 5412 5411 5410 5409 5408 5407 5406 5404 5403 5401 5400 5399 5398 5397 5395 5394 5392
5409 5410 5410 5411 5411 5411 5411 5412 5412 5412 5411 5411 5411 5410 5409 5409 5408 5407 5407 5406 5406 5405 5405 5404 5403 5403 5402 5401 5400 5399 5397 5396 5395 5393 5392 5391 5389 5388 5387 5386 5384 5383 5381
5400 5401 5401 5402 5402 5402 5402 5402 5402 5402 5402 5402 5401 5400 5400 5399 5398 5398 5397 5396 5396 5395 5394 5394 5393 5392 5391 5390 5389 5388 5387 5386 5384 5383 5381 5380 5379 5377 5376 5375 5374 5372 5371
5391 5392 5392 5393 5393 5393 5393 5393 5393 5393 5393 5393 5392 5391 5390 5390 5389 5388 5387 5387 5386 5385 5384 5383 5382 5381 5381 5380 5379 5378 5377 5375 5374 5372 5371 5370 5368 5367 5366 5365 5364 5363 5362
Wind_Speed
40 40 41 41 42 42 43 43 43 43 42 41 41 41 40 40 39 39 39 40 40 40 41 41 41 42 43 44 45 46 46 47 47 46 46 47 47 48 48 49 50 50 51
38 39 40 41 41 41 42 43 43 42 42 41 41 41 41 40 39 39 40 40 40 40 40 40 41 42 43 44 45 46 47 47 47 47 46 47 48 48 48 49 49 50 51
38 38 39 39 40 40 41 42 42 42 42 41 40 40 40 40 40 40 40 39 39 40 40 41 41 42 43 44 45 45 46 47 47 47 46 47 48 48 48 49 49 50 50
38 39 38 39 39 40 40 41 42 42 42 41 40 40 40 40 40 40 40 40 39 40 40 40 41 42 43 43 45 45 45 46 47 47 48 48 48 48 48 48 49 49 50
38 39 39 39 39 39 39 39 40 41 41 41 40 40 40 40 40 40 40 40 40 40 40 41 41 42 42 43 44 45 45 46 46 46 47 48 48 48 47 47 48 48 48
36 37 38 38 38 38 39 39 40 40 41 40 40 40 39 39 40 40 41 41 41 40 40 41 41 42 42 43 43 44 45 45 45 46 46 46 46 46 47 48 48 48 48
36 36 37 37 38 38 38 38 39 39 40 40 40 40 40 40 40 40 40 41 42 42 42 42 42 42 42 42 43 44 43 43 44 45 45 46 46 47 47 47 48 49 49
37 37 37 38 38 38 38 38 38 39 39 39 40 40 40 40 40 40 41 42 42 42 43 43 42 42 42 42 42 42 42 42 43 43 44 45 45 46 46 46 47 48 48
36 37 37 36 36 36 37 37 38 38 38 39 39 39 39 40 40 41 41 42 42 42 42 42 42 42 41 41 41 41 41 42 43 44 43 43 44 45 45 45 45 45 45
34 35 35 35 35 36 36 36 37 37 38 38 38 39 39 40 40 40 41 42 41 41 42 41 41 41 41 41 41 41 42 42 42 42 42 43 44 44 44 44 44 44 44
33 34 34 35 36 36 36 36 36 36 37 38 39 39 39 40 40 40 41 41 41 40 40 40 40 40 40 40 40 41 41 41 41 42 42 42 43 44 44 44 44 44 44
32 33 34 35 35 36 36 36 36 36 37 38 39 39 39 40 40 40 40 40 40 40 40 40 40 40 40 40 40 40 40 41 41 40 41 41 42 43 43 43 43 44 44
32 32 33 34 34 34 35 35 35 36 36 37 38 39 39 40 40 40 40 40 40 40 40 39 39 40 40 40 40 40 40 40 40 40 40 41 41 41 41 42 43 44 44
30 31 31 31 32 32 33 34 34 35 35 36 36 36 37 38 38 38 38 38 39 39 39 39 39 39 39 39 39 39 39 39 40 40 40 40 40 40 40 40 41 42 43
29 30 30 31 31 31 32 33 34 35 35 35 35 36 36 36 36 37 37 37 37 36 36 36 37 38 38 39 39 40 39 40 40 41 40 40 40 40 40 41 41 42 42
29 30 30 31 31 32 32 33 33 34 34 34 35 35 34 34 35 35 35 35 36 36 36 36 36 37 37 38 39 40 40 40 41 41 40 40 40 41 41 42 42 42 43
30 30 30 30 31 31 31 32 32 33 33 33 33 33 33 34 34 34 34 34 35 35 36 37 36 36 37 38 38 39 40 40 41 41 41 41 41 42 42 42 43 43 44
29 30 30 30 30 31 31 31 32 32 33 33 34 34 33 33 33 34 34 35 35 36 37 37 37 37 37 38 38 39 39 40 41 41 42 42 42 42 42 42 43 43 43
29 29 29 29 29 30 30 30 31 32 32 33 34 34 34 33 34 34 35 35 36 36 37 38 38 38 38 38 39 39 40 40 41 41 41 41 42 43 43 43 43 43 43
29 29 29 29 30 30 30 30 31 31 31 32 33 34 34 34 34 34 35 35 36 37 37 37 38 38 39 39 39 40 40 40 41 41 41 41 42 42 42 43 43 43 43
29 29 30 30 30 30 30 30 30 31 31 31 32 33 33 34 34 35 35 35 35 36 36 37 37 38 39 39 39 39 40 40 40 40 41 41 41 41 42 42 42 42 41
29 29 30 30 30 30 30 30 30 31 31 31 31 32 33 34 34 35 35 36 36 36 36 36 37 37 38 38 38 38 38 39 39 39 39 40 40 40 40 40 40 40 39
29 29 29 29 29 30 30 30 30 30 30 31 31 32 32 32 32 33 34 34 34 34 35 35 35 36 36 36 37 37 37 37 37 37 38 38 38 39 38 38 38 37 37
28 28 28 28 29 29 29 29 29 29 30 30 30 30 30 30 31 31 32 33 33 33 33 33 33 34 35 35 35 36 36 36 36 37 37 37 37 37 36 36 35 35 35
27 27 27 27 27 27 27 28 28 28 28 29 29 29 29 29 29 30 30 31 31 32 32 32 32 33 34 34 34 34 34 35 35 35 35 35 34 33 33 33 33 33 33
26 26 26 26 27 27 27 27 27 27 28 28 28 28 28 29 29 29 29 29 30 30 31 31 31 32 32 32 32 32 32 32 32 32 32 31 31 31 31 31 30 30 31
Wind_Direction
249 249 249 249 249 249 249 250 251 252 253 255 257 257 258 259 260 260 261 261 262 262 262 261 261 261 262 261 261 262 263 263 263 261 261 262 263 264 264 264 265 266 266
249 249 249 249 249 250 249 249 251 252 253 255 256 257 258 258 260 261 261 261 263 263 262 262 262 262 263 262 263 263 263 264 264 262 263 263 264 264 264 265 265 266 266
248 248 248 249 250 251 251 250 250 251 252 254 255 257 258 259 260 261 261 262 263 264 263 263 264 264 264 264 264 264 264 265 264 263 263 264 265 265 265 266 266 267 267
248 247 247 249 250 251 252 252 251 252 252 253 255 257 258 259 260 261 261 263 265 265 264 264 264 265 265 266 266 266 265 265 264 264 265 265 265 265 266 266 267 267 268
248 247 248 249 249 250 251 252 253 253 254 254 256 257 259 260 260 260 261 263 264 265 265 265 266 266 266 267 266 266 266 266 266 266 266 266 266 266 266 267 268 268 269
250 250 250 251 251 251 251 252 254 255 255 256 257 257 258 259 260 261 261 262 263 265 266 267 267 268 268 268 267 267 267 267 267 267 267 266 267 267 268 268 269 269 269
248 250 252 251 251 252 253 254 254 255 255 256 256 257 258 259 261 262 263 263 264 265 266 267 268 269 270 271 269 269 268 268 268 268 267 267 267 268 269 270 270 270 270
248 250 251 251 252 252 254 254 255 255 255 256 257 257 258 260 261 263 264 264 265 266 267 267 269 269 269 270 270 269 267 268 268 268 268 267 268 269 270 270 271 271 270
248 250 251 252 252 253 253 255 255 255 256 256 257 258 259 260 261 263 264 265 266 267 267 268 269 270 270 269 269 268 267 268 270 270 271 271 270 270 270 270 271 271 270
249 250 251 251 252 253 254 255 256 256 257 257 257 259 260 261 262 263 266 266 266 267 267 268 268 268 268 269 268 267 268 269 270 270 271 271 272 272 272 271 271 272 272
251 252 252 252 253 254 255 256 256 256 257 257 258 259 260 262 262 263 265 266 267 268 268 268 268 267 267 268 268 268 269 269 270 270 271 271 272 273 273 273 273 272 272
251 253 253 253 254 255 256 257 257 258 258 259 260 261 262 262 263 263 265 266 267 268 268 267 267 266 267 267 268 269 269 270 270 271 271 271 272 272 272 272 272 272 273
253 253 253 253 254 255 256 257 259 260 260 261 262 262 263 263 263 264 265 266 266 267 267 267 266 266 267 268 268 269 269 269 270 270 271 272 272 272 272 272 272 273 274
254 253 253 253 255 256 257 258 259 260 262 263 263 263 262 262 263 263 265 266 267 267 267 266 266 266 267 268 268 268 269 269 269 270 271 272 272 273 274 274 274 275 276
255 256 256 257 257 257 258 259 260 261 262 264 264 264 263 262 262 263 264 264 265 266 267 267 267 268 268 268 268 268 268 269 270 271 271 271 272 273 274 276 277 278 278
255 257 259 259 259 259 260 261 262 262 263 264 264 264 264 263 263 263 263 264 264 264 266 267 268 269 270 270 269 269 269 270 270 270 271 271 273 274 276 277 278 279 279
256 258 259 260 260 261 261 262 263 263 264 264 265 264 264 264 265 265 264 264 264 264 266 267 269 270 271 271 271 271 271 271 271 271 271 272 274 275 277 278 279 280 280
257 259 260 260 260 261 261 262 263 264 265 264 264 265 264 264 265 266 266 266 266 267 267 268 269 270 272 273 273 273 272 272 272 272 273 273 274 276 277 279 279 280 280
259 259 259 259 259 260 261 262 264 265 265 265 264 265 265 265 265 267 267 267 268 269 269 270 270 271 273 274 275 275 274 274 273 273 273 274 275 276 277 278 279 279 279
260 259 258 258 259 261 262 263 264 265 265 266 266 266 266 267 267 267 268 269 270 270 271 271 272 273 274 275 276 276 275 275 274 274 274 275 276 277 277 278 279 279 280
260 259 259 260 260 261 262 264 264 265 265 266 266 267 267 268 267 267 268 269 270 271 272 272 273 273 275 276 276 276 276 275 275 275 275 275 276 277 278 278 279 279 279
259 260 260 261 262 262 263 263 264 264 265 266 267 268 269 269 268 268 268 269 270 271 272 273 274 274 275 276 275 275 276 276 276 277 276 276 277 277 277 278 278 278 279
260 259 260 261 262 263 264 264 264 264 265 267 268 270 271 271 270 269 269 270 271 272 273 274 275 275 275 275 275 276 277 277 277 277 277 277 278 277 277 278 278 278 278
259 258 259 260 262 264 264 265 265 266 266 267 269 271 272 272 271 272 271 272 272 272 273 274 275 274 275 276 275 276 276 276 277 278 278 278 278 278 277 277 278 277 277
257 258 259 260 262 263 264 265 265 265 266 267 269 271 272 272 272 273 274 274 273 273 273 274 275 275 275 275 275 276 276 277 278 278 279 279 278 277 277 277 276 276 277
258 259 260 262 263 264 264 265 265 266 267 269 271 273 273 273 273 273 274 275 275 274 274 274 274 275 275 275 275 276 277 277 278 278 278 277 276 276 276 275 275 276 277